This demonstration page uses our WeatherBlox Daily Observations layout. Learn more.

Left ArrowRight Arrow

Hourly Observations for February 23, 2020

Temp ( °F °C ) Dew Point ( °F °C ) Humidity (%) Winds ( mph kmh ) Pressure ( in mb ) Visibility ( mi km ) Precip ( " mm )
12:53 am 00:53 Clear 24 -4.4 18 -7.8 77 77 N N/A 30.25 1025 10 16 N/A
1:53 am 01:53 Clear 23 -5 18 -7.8 81 81 N N/A 30.24 1024 10 16 N/A
2:53 am 02:53 Clear 23 -5 18 -7.8 81 81 N N/A 30.23 1024 10 16 N/A
3:53 am 03:53 Clear 23 -5 16 -8.9 74 74 E 3 6 30.21 1023 10 16 N/A
4:53 am 04:53 Clear 26 -3.3 17 -8.3 69 69 E 5 7 30.21 1023 10 16 N/A
5:53 am 05:53 Clear 24 -4.4 18 -7.8 77 77 E 3 6 30.21 1023 10 16 N/A
6:53 am 06:53 Mostly Clear 28 -2.2 18 -7.8 66 66 E 6 9 30.20 1023 10 16 N/A
7:53 am 07:53 Mostly Cloudy 28 -2.2 20 -6.7 72 72 ESE 6 9 30.20 1023 10 16 N/A
8:53 am 08:53 Cloudy 34 1.1 21 -6.1 59 59 N N/A 30.20 1023 10 16 N/A
9:53 am 09:53 Cloudy 37 2.8 22 -5.6 54 54 ESE 5 7 30.19 1023 10 16 N/A
10:53 am 10:53 Cloudy 42 5.6 22 -5.6 45 45 SSE 3 6 30.18 1022 10 16 N/A
11:53 am 11:53 Cloudy 48 8.9 22 -5.6 36 36 SSW 10 17 30.16 1021 10 16 N/A
12:53 pm 12:53 Cloudy 48 8.9 24 -4.4 39 39 SSW 8 13 30.14 1021 10 16 N/A
1:53 pm 13:53 Mostly Cloudy 51 10.6 25 -3.9 36 36 VRB 7 11 30.11 1020 10 16 N/A
2:53 pm 14:53 Cloudy 51 10.6 24 -4.4 35 35 SW 10 17 30.10 1019 10 16 N/A
3:53 pm 15:53 Sunny 52 11.1 23 -5 32 32 SSW 6 9 30.08 1019 10 16 N/A
4:53 pm 16:53 Cloudy 53 11.7 22 -5.6 30 30 VRB 3 6 30.06 1018 10 16 N/A
5:53 pm 17:53 Sunny 52 11.1 22 -5.6 31 31 SSW 5 7 30.07 1018 10 16 N/A
6:53 pm 18:53 Clear 39 3.9 25 -3.9 57 57 N N/A 30.07 1018 10 16 N/A
7:53 pm 19:53 Clear 34 1.1 25 -3.9 70 70 N N/A 30.08 1019 10 16 N/A
8:53 pm 20:53 Clear 32 undefined 24 -4.4 73 73 N N/A 30.08 1019 10 16 N/A
9:53 pm 21:53 Clear 32 undefined 29 -1.7 88 88 E 3 6 30.08 1019 10 16 N/A
10:53 pm 22:53 Clear 31 -0.6 28 -2.2 89 89 N N/A 30.07 1018 10 16 N/A
11:53 pm 23:53 Clear 30 -1.1 27 -2.8 88 88 N N/A 30.06 1018 10 16 N/A

Powered by AerisWeather